www.pogodaiklimat.ru

Погода и климат >> Архив погоды >> Австралия >> Западная Австралия >> Марбл-бар


ПОГОДА в Марбл-баре

  • Прогноз погоды в Марбл-баре
  • Монитор погоды в Марбл-баре

АРХИВ ПОГОДЫ в Марбл-баре

Время (UTC), дата Ветер
(напр.,м/с)
 
Видим.   Явления Облачность Т
(С)
Тd
(С)
f
(%)
Тe
(С)
Тes
(С)
Комфортность P
(гПа)
Po
(гПа)
Тmin
(С)
Tmax
(С)
R
(мм)
R24
(мм)
S
(см)
04 19.06 В 2 н/о н/о +26.9 +5.2 25 +26 +26 жарко 1014.4 993.1
06 19.06 ЮВ 1 н/о н/о +28.4 +5.3 23 +27 +27 жарко 1013.1 991.9
07 19.06 С 1 н/о н/о +29.2 +4.6 21 +28 +28 жарко 1013.0 991.8
09 19.06 З 1 н/о н/о +26.2 +4.6 25 +25 +25 комфорт 1013.6 992.4
10 19.06 штиль 0 н/о н/о +24.1 +5.9 31 +24 +24 комфорт 1013.9 992.7
12 19.06 штиль 0 н/о н/о +22.1 +6.7 37 +23 +23 комфорт 1014.7 993.4
13 19.06 штиль 0 н/о н/о +21.7 +6.4 37 +22 +22 комфорт 1015.1 993.8 +29.8
15 19.06 С 3 н/о н/о +20.8 +7.4 42 +22 +22 комфорт 1015.5 994.2
16 19.06 С 1 н/о н/о +20.1 +8.1 46 +22 +22 комфорт 1015.6 994.3
18 19.06 ЮВ 1 н/о н/о +18.4 +8.9 54 +20 +20 1015.5 994.2
19 19.06 В 1 н/о н/о +18.4 +9.2 55 +20 +20 1015.4 994.1
21 19.06 Ю 1 н/о н/о +16.2 +8.9 62 +18 +18 1015.5 994.2
22 19.06 ЮВ 1 н/о н/о +15.4 +9.1 66 +17 +17 1016.0 994.7
00 20.06 штиль 0 н/о н/о +20.5 +13.0 62 +22 +22 комфорт 1017.2 995.9
01 20.06 штиль 0 н/о н/о +22.7 +10.8 47 +25 +25 комфорт 1017.5 996.2 +15.2
03 20.06 СВ 1 н/о н/о +26.7 +9.1 33 +27 +27 жарко 1017.2 995.9
04 20.06 С 3 н/о н/о +27.8 +11.4 36 +29 +29 жарко 1016.3 995.0
06 20.06 С 3 н/о н/о +29.1 +13.7 39 +31 +31 жарко 1014.6 993.3
07 20.06 С 4 н/о н/о +29.5 +13.3 37 +31 +31 жарко 1014.3 993.0
09 20.06 С 4 н/о н/о +27.6 +13.2 41 +29 +29 жарко 1014.3 993.0
10 20.06 ЮЗ 5 н/о н/о +22.3 +17.7 75 +27 +27 душно 1016.2 994.9
12 20.06 Ю 1 н/о н/о +21.2 +18.0 82 +25 +25 комфорт 1017.4 996.1
13 20.06 ЮЗ 2 н/о н/о +20.9 +18.8 88 +26 +26 душно 1017.8 996.5 +30.3
15 20.06 ЮВ 4 н/о н/о +19.8 +17.9 89 +23 +23 комфорт 1017.7 996.4
16 20.06 ЮВ 1 н/о {туман} н/о +19.3 +17.3 88 +22 +22 комфорт 1017.5 996.2
18 20.06 В 1 н/о н/о +18.6 +18.4 99 +21 +21 комфорт 1016.9 995.6
19 20.06 ЮВ 1 н/о в посл. час дождь {туман} н/о +18.7 +18.2 97 +21 +21 комфорт 1016.9 995.6
21 20.06 ЮВ 4 н/о н/о +17.5 +14.8 84 +17 +17 1016.4 995.1
22 20.06 ЮВ 4 н/о н/о +17.6 +14.1 80 +17 +17 1016.8 995.5
00 21.06 ЮВ 4 н/о н/о +18.8 +13.4 71 +20 +20 1017.4 996.1
01 21.06 В 4 н/о н/о +21.4 +11.7 54 +23 +23 комфорт 1018.2 996.9 +17.5
03 21.06 В 5 н/о н/о +26.4 +4.8 25 +26 +26 жарко 1017.5 996.2
04 21.06 В 4 н/о н/о +26.6 +4.4 24 +26 +26 жарко 1016.7 995.4
06 21.06 В 3 н/о н/о +27.3 +3.1 21 +26 +26 жарко 1015.4 994.1
07 21.06 С 3 н/о н/о +28.3 +2.5 19 +26 +26 жарко 1015.1 993.8
09 21.06 С 5 н/о н/о +27.2 +3.0 21 +26 +26 жарко 1015.5 994.2
10 21.06 Ю 1 н/о н/о +24.5 +5.8 30 +24 +24 комфорт 1016.0 994.7
12 21.06 ЮЗ 3 н/о н/о +22.6 +7.6 38 +24 +24 комфорт 1017.3 996.0
13 21.06 ЮЗ 2 н/о н/о +21.6 +8.1 42 +23 +23 комфорт 1017.6 996.3 +29.1
15 21.06 ЮВ 3 н/о н/о +20.6 +5.0 36 +22 +22 комфорт 1017.2 995.9
16 21.06 ЮВ 3 н/о н/о +20.3 +4.4 35 +21 +21 комфорт 1017.0 995.7
18 21.06 ЮВ 2 н/о н/о +18.5 +4.7 40 +19 +19 1016.5 995.2
19 21.06 ЮВ 1 н/о н/о +18.3 +5.2 42 +20 +20 1016.4 995.1
21 21.06 ЮВ 1 н/о н/о +15.9 +5.5 50 +17 +17 1016.7 995.4
22 21.06 штиль 0 н/о н/о +15.6 +5.8 52 +16 +16 1017.1 995.8
00 22.06 В 2 н/о н/о +17.8 +5.1 43 +18 +18 1018.3 997.0
01 22.06 В 3 н/о н/о +21.0 +4.1 33 +22 +22 комфорт 1018.6 997.3 +14.5
03 22.06 СВ 5 н/о н/о +25.2 -3.2 15 +23 +23 комфорт 1017.8 996.5
04 22.06 В 5 н/о н/о +26.7 -4.0 13 +24 +24 комфорт 1016.8 995.5
06 22.06 В 4 н/о н/о +27.4 -3.4 13 +25 +25 комфорт 1015.0 993.7
07 22.06 В 3 н/о н/о +28.5 -1.6 14 +26 +26 жарко 1014.7 993.4
09 22.06 СВ 3 н/о н/о +27.2 -1.7 15 +25 +25 комфорт 1014.7 993.4
10 22.06 СВ 1 н/о н/о +23.6 +0.7 22 +23 +23 комфорт 1014.9 993.6
12 22.06 ЮВ 1 н/о н/о +19.1 +3.7 36 +21 +21 комфорт 1015.7 994.4
13 22.06 штиль 0 н/о н/о +18.7 +3.7 37 +19 +19 1016.0 994.7 +29.0
15 22.06 штиль 0 н/о н/о +16.1 +4.2 45 +16 +16 1016.5 995.2
16 22.06 штиль 0 н/о н/о +15.6 +4.9 49 +16 +16 1016.8 995.5
18 22.06 штиль 0 н/о н/о +15.0 +5.0 51 +15 +15 1016.2 994.9
19 22.06 штиль 0 н/о н/о +13.4 +5.6 59 +13 +13 1016.0 994.7
21 22.06 штиль 0 н/о н/о +11.8 +5.4 65 +11 +11 1016.6 995.3
22 22.06 Ю 2 н/о н/о +11.6 +5.7 67 +11 +11 1016.6 995.3
00 23.06 штиль 0 н/о н/о +17.6 +2.0 35 +18 +18 1018.5 997.2
01 23.06 СВ 3 н/о н/о +21.0 -2.8 20 +21 +21 комфорт 1018.9 997.5 +11.1
03 23.06 СВ 5 н/о н/о +25.7 -9.5 9 +23 +23 комфорт 1017.6 996.3
04 23.06 С 6 н/о н/о +27.1 -9.9 8 +24 +24 комфорт 1016.8 995.5
06 23.06 СВ 3 н/о н/о +29.1 -10.2 7 +25 +25 комфорт 1015.3 994.0
07 23.06 С 3 н/о н/о +28.9 -10.3 7 +25 +25 комфорт 1015.3 994.0
09 23.06 С 2 н/о н/о +27.2 -9.9 8 +24 +24 комфорт 1015.8 994.5
10 23.06 С 1 н/о н/о +22.8 -5.2 15 +21 +21 комфорт 1016.4 995.1
12 23.06 штиль 0 н/о н/о +18.1 -2.2 25 +18 +18 1017.6 996.3
13 23.06 штиль 0 н/о н/о +15.9 -1.2 31 +16 +16 1018.1 996.8 +29.7
15 23.06 Ю 1 н/о н/о +14.3 +0.6 39 +15 +15 1018.1 996.8
16 23.06 Ю 1 н/о н/о +15.6 -0.6 33 +16 +16 1017.9 996.6
18 23.06 штиль 0 н/о н/о +11.8 +1.2 48 +12 +12 1017.5 996.2
19 23.06 Ю 1 н/о н/о +12.7 +1.1 45 +13 +13 1017.3 996.0
21 23.06 штиль 0 н/о н/о +10.1 +2.0 57 +10 +10 1017.4 996.1
22 23.06 штиль 0 н/о н/о +10.2 +2.8 60 +10 +10 1017.7 996.4
00 24.06 ЮЗ 2 н/о н/о +16.3 +3.4 42 +16 +16 1019.0 997.6
01 24.06 СВ 1 н/о н/о +21.2 +1.5 27 +21 +21 комфорт 1019.5 998.1 +9.7
03 24.06 В 2 н/о н/о +26.9 -7.2 10 +24 +24 комфорт 1018.9 997.5
04 24.06 В 2 н/о н/о +28.3 -9.1 8 +25 +25 комфорт 1018.1 996.8
06 24.06 ЮВ 2 н/о н/о +29.4 -9.9 7 +25 +25 комфорт 1017.1 995.8
07 24.06 В 2 н/о н/о +29.6 -11.7 6 +25 +25 комфорт 1016.9 995.6
09 24.06 В 2 н/о н/о +28.1 -9.2 8 +24 +24 комфорт 1017.6 996.3
10 24.06 штиль 0 н/о н/о +22.9 -4.2 16 +21 +21 комфорт 1018.2 996.9
12 24.06 штиль 0 н/о н/о +18.3 0.0 29 +18 +18 1019.3 997.9
13 24.06 штиль 0 н/о н/о +17.7 +0.8 32 +18 +18 1019.7 998.3 +30.7
15 24.06 ЮВ 2 н/о н/о +15.3 -0.1 35 +16 +16 1019.9 998.5
16 24.06 штиль 0 н/о н/о +13.6 +0.3 40 +14 +14 1019.7 998.3
18 24.06 Ю 1 н/о н/о +14.3 +0.2 38 +16 +16 1018.7 997.4
19 24.06 ЮВ 1 н/о н/о +14.9 +1.4 40 +16 +16 1018.7 997.4
21 24.06 Ю 1 н/о н/о +13.7 +1.7 44 +14 +14 1019.2 997.8
22 24.06 Ю 1 н/о н/о +13.1 +1.8 46 +14 +14 1019.9 998.5
00 25.06 штиль 0 н/о н/о +18.3 +3.4 37 +18 +18 1021.1 999.7
01 25.06 СВ 2 н/о н/о +21.7 -1.6 21 +21 +21 комфорт 1021.5 1000.1 +12.5
03 25.06 СВ 4 н/о н/о +28.4 -10.7 7 +25 +25 комфорт 1020.7 999.3
04 25.06 СВ 4 н/о н/о +29.2 -10.1 7 +25 +25 комфорт 1020.0 998.6
06 25.06 СВ 3 н/о н/о +30.9 -10.8 6 +27 +27 жарко 1018.0 996.7
07 25.06 СВ 3 н/о н/о +30.8 -10.9 6 +27 +27 жарко 1017.8 996.5
09 25.06 В 2 н/о н/о +29.0 -8.5 8 +25 +25 комфорт 1018.1 996.8
10 25.06 В 1 н/о н/о +23.5 -3.7 16 +22 +22 комфорт 1018.5 997.2
12 25.06 штиль 0 н/о н/о +19.0 -0.9 26 +19 +19 1019.4 998.0
13 25.06 Ю 1 н/о н/о +17.6 -0.6 29 +19 +19 1019.4 998.0 +31.4
15 25.06 штиль 0 н/о н/о +15.1 -0.2 35 +15 +15 1019.3 997.9
16 25.06 Ю 1 н/о н/о +14.5 0.0 37 +15 +15 1019.0 997.6
18 25.06 ЮВ 1 н/о н/о +14.0 -0.8 36 +15 +15 1018.3 997.0
19 25.06 Ю 1 н/о н/о +14.0 -2.0 33 +15 +15 1018.1 996.8
21 25.06 штиль 0 н/о н/о +13.1 -1.2 37 +13 +13 1018.2 996.9
22 25.06 ЮЗ 1 н/о н/о +12.2 +0.3 44 +13 +13 1018.5 997.2
00 26.06 З 1 н/о н/о +17.0 +3.0 39 +19 +19 1019.5 998.1
01 26.06 В 2 н/о н/о +23.6 -7.4 12 +21 +21 комфорт 1019.8 998.4 +10.4
03 26.06 СВ 4 н/о н/о +28.1 -10.9 7 +24 +24 комфорт 1018.9 997.5

 

Местоположение метеостанции Марбл-бар (Западная Австралия, Австралия): широта -21.18 долгота 119.75 высота над уровнем моря 183 м.

В архиве по умолчанию представлена погода в Марбл-баре за последнюю неделю. Архивные данные за месяц целиком и за предыдущие месяцы, начиная с января 2011 года, Вы можете получить, выбрав интересующий диапазон дат из раскрывающегося списка и нажав кнопку "Ввод!".


*Определитесь, кто Вы:
робот инопланетянин человек

Внимание! Время в таблицах - всемирное. Для получения местного времени необходимо прибавить поправку, которая равна 8 ч.

Смотрите также архив погоды в соседних городах и на ближайших метеорологических станциях:

Погода в Порт-Хедленде Apardoo (Западная Австралия, Австралия) (148 км)
Погода в Мандоре (Западная Австралия, Австралия) (198 км)
Погода в Ньюмане (Западная Австралия, Австралия) (248 км)
Погода в Телфере (Западная Австралия, Австралия) (261 км)
Погода в Роборн аэропорту (Западная Австралия, Австралия) (274 км)
Погода в Параберду (Западная Австралия, Австралия) (302 км)
Погода в Каррате (Западная Австралия, Австралия) (314 км)
Погода в Марди (Западная Австралия, Австралия) (392 км)
Погода в Роули Шоалс (Западная Австралия, Австралия) (415 км)
Погода на Острове Варанас (Западная Австралия, Австралия) (438 км)

Пояснения к столбцам:

Ветер - указаны скорость ветра в м/с - средняя за 10 мин, порывы в срок и между сроками (в фигурных скобках) и направление, откуда дует ветер: С - северный, СВ - северо-восточный, В - восточный, ЮВ - юго-восточный, Ю - южный, ЮЗ - юго-западный, З - западный, СЗ - северо-западный.
Видимость - горизонтальная дальность видимости в метрах или километрах. При видимости от 1 до 10 км при отсутствии осадков обычно наблюдается дымка, при ухудшении видимости до 1 км и менее - туман. В сухую погоду видимость может ухудшаться дымом, пылью или мглою.
Явления - указаны атмосферные явления, наблюдавшиеся в срок или в последний час перед сроком; фигурными скобками обозначены явления, наблюдавшиеся между сроками (за 1-3 часа до срока); квадратными скобками обозначены град или гололедные отложения с указанием их диаметра в мм.
Облачность - указаны через наклонную черту общая и нижняя облачность в баллах и высота нижней границы облаков в метрах; квадратными скобками обозначены формы облаков: Ci - перистые, Cs - перисто-слоистые, Cc - перисто-кучевые, Ac - высококучевые, As - высокослоистые, Sc - слоисто-кучевые, Ns - слоисто-дождевые, Cu - кучевые, Cb - кучево-дождевые. Подробнее классификацию облаков см. в Атласе облаков (PDF).
T - Температура воздуха - температура, измеренная на высоте 2 м над землей.
Td - Температура точки росы - температура, при понижении до которой содержащийся в воздухе водяной пар достигнет насыщения.
f - Относительная влажность воздуха - влажноcть воздуха, измеренная на высоте 2 м над землей.
Te - Эффективная температура - температура, которую ощущает одетый по сезону человек в тени. Характеристика душности погоды. При расчете учитывается влияние влажности воздуха и скорости ветра на теплоощущения человека.
Tes - Эффективная температура на солнце - температура, которую ощущает человек, с поправкой на солнечный нагрев. Характеристика знойности погоды. Зависит от высоты солнца над горизонтом, облачности и скорости ветра. Ночью, в пасмурную погоду, а также при ветре 12 м/с и более поправка равна нулю.
P - Атмосферное давление - приведенное к уровню моря атмосферное давление.
Po - Атмосферное давление - измеренное на уровне метеостанции атмосферное давление.
Tmin - Минимальная температура - минимум температуры воздуха на высоте 2 м над землей.
Tmax - Максимальная температура - максимум температуры воздуха на высоте 2 м над землей.
R - Количество осадков - Количество выпавших осадков за период времени, мм. При наведении курсора мыши на число - период времени, за который выпало указанное количество осадков.
R24 - Количество осадков - Количество выпавших осадков за 24 часа, мм.
S - Снежный покров - Высота снежного покрова, см. При наведении курсора мыши на число - состояние снежного покрова и степень покрытия местности в баллах.